Location: LDNL
(36.4545°S, 141.6685°E)
Time: 17:38:47
(UTC+10:00)

FO-29 - Visible Passes

Search period start: 16 May 2022 00:00
Search period end: 26 May 2022 00:00
Orbit: 800 x 1321 km, 98.5° (Epoch: 15 May)

Date Brightness Start Highest point End Pass type
(mag) Time Alt. Az. Time Alt. Az. Time Alt. Az.
16 May 11.0 06:44:56 10° NE 06:52:26 52° ESE 06:59:35 10° S visible
16 May 11.5 19:54:13 10° N 19:54:13 10° N 19:54:19 10° N visible
17 May 12.2 05:52:28 10° ENE 05:58:00 22° ESE 06:03:19 10° SSE visible
18 May 11.1 06:40:06 10° NE 06:47:31 48° ESE 06:54:29 10° S visible
18 May 11.5 19:48:59 10° NNE 19:48:59 10° NNE 19:49:02 10° NNE visible
19 May 12.2 05:47:51 10° ENE 05:53:05 20° ESE 05:58:04 10° SSE visible
20 May 11.2 06:35:19 10° NE 06:42:34 45° ESE 06:49:21 10° S visible
20 May 11.4 19:43:44 10° NNE 19:43:44 10° NNE 19:43:46 10° NNE visible
21 May 12.2 05:43:17 10° ENE 05:48:09 19° ESE 05:52:47 10° SSE visible
22 May 11.3 06:30:32 10° NE 06:37:38 42° ESE 06:44:13 10° S visible
22 May 11.4 19:38:26 10° NNE 19:38:26 10° NNE 19:38:28 10° NNE visible
23 May 12.3 05:38:46 10° E 05:43:13 17° ESE 05:47:27 10° SSE visible
23 May 11.7 20:29:01 10° NNW 20:29:01 10° NNW 20:29:04 10° NNW visible
24 May 11.3 06:25:46 10° NE 06:32:41 39° ESE 06:39:03 10° S visible
24 May 11.4 19:33:08 10° NNE 19:33:08 10° NNE 19:33:10 10° NNE visible
25 May 12.3 05:34:18 10° E 05:38:16 16° ESE 05:42:04 10° SSE visible
25 May 11.6 20:23:42 11° NNW 20:23:42 11° NNW 20:23:56 10° NNW visible
